Regional Weather Roundup
Issued by NWS Wakefield, VA

Home | Current Version | Previous Version | Text Only | Print | Product List | Glossary On
Versions: 1 2 3 4 5 6 7 8 9 10 11 12 13 14 15 16 17 18 19 20 21 22 23 24 25 26 27 28
000
ASUS41 KAKQ 231310
RWRAKQ

REGIONAL WEATHER ROUNDUP
NATIONAL WEATHER SERVICE WAKEFIELD VA
900 AM EDT WED APR 23 2014

Note: "fair" indicates few or no clouds below 12,000 feet with no
significant weather and/or obstructions to visibility. * = Denotes
station may not report precipitation (e.g., rain,snow,etc.),
thunder or fog.

VAZ042-051-052>054-056-231400-
NORTHERN VIRGINIA

CITY           SKY/WX    TMP DP  RH WIND       PRES   REMARKS
WASH NATIONAL  MOSUNNY   53  33  46 NW22G29   29.81R
DULLES         MOSUNNY   49  30  48 W24G33    29.81R
FORT BELVOIR   MOSUNNY   53  31  42 NW22G37   29.81R
QUANTICO       MOSUNNY   53  33  46 N14       29.83R
FREDERICKSBRG* SUNNY     56  32  41 NW16G25   29.81S
STAFFORD*      SUNNY     54  34  46 NW24G31   29.85R
WARRENTON      CLOUDY    53  38  56 NW15G24   29.82R
CULPEPER*      PTSUNNY   55  28  35 N10       29.83R
MANASSAS*      MOSUNNY   54  36  50 NW24G30   29.82R
LEESBURG*      CLOUDY    50  37  62 N17G24    29.83R
WINCHESTER     PTSUNNY   46  32  57 NW29G35   29.83F
$$

VAZ048-049-060>072-079>083-231400-
CENTRAL AND SOUTH CENTRAL VIRGINIA...AND NORTH CENTRAL NORTH CAROLINA

CITY           SKY/WX    TMP DP  RH WIND       PRES   REMARKS
RICHMOND       SUNNY     58  32  37 NW13G24   29.79R
CHESTERFIELD*  NOT AVBL
HANOVER        SUNNY     56  32  40 NW10G22   29.81R
TAPPAHANNOCK*  SUNNY     57  25  30 NW16G30   29.77R
CHARLOTTSVILLE SUNNY     54  31  41 NW8       29.82R
ORANGE*        SUNNY     54  32  43 NW10G18   29.83R
LOUISA*        SUNNY     55  36  47 NW10      29.80R
FARMVILLE*     SUNNY     57  34  41 N7        29.80R
SOUTH HILL*    PTSUNNY   57  48  72 CALM      29.86R
ROANOKE RAPIDS SUNNY     48  36  61 N9        29.80R
RALEIGH        MOSUNNY   61  34  36 VRB5      29.83R
$$

VAZ088>098-231400-
SOUTHEAST VIRGINIA

CITY           SKY/WX    TMP DP  RH WIND       PRES   REMARKS
NORFOLK        SUNNY     58  38  47 N14G21    29.76R
VIRGINIA BEACH MOSUNNY   59  37  44 N15       29.75R
NORFOLK NAVAL  MOSUNNY   59  36  42 NW15      29.78R
WEST POINT*    SUNNY     58  32  36 NW9       29.78R
NEWPORT NEWS   SUNNY     61  35  37 NW22G31   29.76R
LANGLEY AFB    SUNNY     58  35  42 N20G25    29.76R
FORT EUSTIS    SUNNY     57  40  52 N12G18    29.75R
WILLIAMSBURG*    N/A     57  37  47 N15       29.78R
FRANKLIN*      SUNNY     59  39  47 N9G17     29.78S
WAKEFIELD      SUNNY     58  36  43 N9G20     29.78R
$$

VAZ020-022-025-037-045-231400-
WESTERN AND SOUTHWEST VIRGINIA

CITY           SKY/WX    TMP DP  RH WIND       PRES   REMARKS
STAUNTON*      SUNNY     50  29  43 W7        29.86R
HOT SPRINGS VA SUNNY     39  28  65 NW12G26   29.85S
LYNCHBURG      SUNNY     59  31  34 NW8       29.85R
DANVILLE       SUNNY     57  34  41 NW9G21    29.86R
MARTINSVILLE   SUNNY     54  33  43 N9        29.90R
ROANOKE        MOSUNNY   51  29  42 W12       29.89R
BLACKSBURG     SUNNY     46  36  66 W9G20     29.91R
DUBLIN*        SUNNY     46  31  56 NW10G22   29.92R
MARION*        SUNNY     45  27  49 W14G24    29.95R
HILLSVILLE*    SUNNY     46  18  31 NW15G25   29.92R
RICHLANDS*     PTSUNNY   45  33  62 N6        29.97R
WISE*          SUNNY     41  28  60 N7        30.00R
ABINGDON*      SUNNY     48  29  48 W8        29.98R
$$

MDZ021>025-VAZ099-100-231400-
SOUTHERN MARYLAND AND THE DELMARVA PENINSULA

CITY           SKY/WX    TMP DP  RH WIND       PRES   REMARKS
PATUXENT RIVER MOSUNNY   54  35  48 NW20G31   29.75R
BAY BRIDGE APT MOSUNNY   52  34  50 NW22G29   29.77R
LEONARDTOWN    SUNNY     54  32  43 W14G24    29.78R
DOVER          SUNNY     52  34  49 W18G33    29.68R
GEORGETOWN     SUNNY     54  34  46 NW17G29   29.69S
EASTON         MOSUNNY   54  37  54 NW21G33   29.79R
CAMBRIDGE      SUNNY     54  32  43 NW21G30   29.75R
SALISBURY      SUNNY     57  35  43 NW16G33   29.70S
OCEAN CITY     SUNNY     56  36  47 NW12G25   29.69S
WALLOPS ISLAND MOSUNNY   57  35  43 NW20G33   29.72R
ACCOMACK*      SUNNY     55  32  41 N15G29    29.73R
$$

NCZ012>017-030>032-231400-
EASTERN NORTH CAROLINA

CITY           SKY/WX    TMP DP  RH WIND       PRES   REMARKS
ELIZABETH CITY SUNNY     60  39  45 NW17      29.76R
AHOSKIE*       SUNNY     58  44  59 N10G16    29.80R
EDENTON*       MOSUNNY   61  52  72 N8G17     29.77R
CURRITUCK*     SUNNY     60  35  38 NW12G23   29.76R
KILL DEVIL HLS SUNNY     56  46  70 N8G16     29.74R
MANTEO         SUNNY     58  45  62 N16G22    29.75R
CAPE HATTERAS  SUNNY     58  32  37 N14G25    29.74R
GOLDSBORO      SUNNY     64  54  69 N13G20    29.78R
WASHINGTON     SUNNY     63  56  79 N12       29.77R
GREENVILLE     SUNNY     63  54  72 N9        29.81R
NEW BERN       SUNNY     66  56  70 N12       29.78R
WILMINGTON     SUNNY     68  54  60 NW13      29.79R
$$

VAZ048-231400-
ELSEWHERE

CITY           SKY/WX    TMP DP  RH WIND       PRES   REMARKS
HARRISBURG PA  MOSUNNY   49  33  54 NW23      29.76R
BALTIMORE      PTSUNNY   50  31  48 NW22G36   29.78R
ANNAPOLIS      MOSUNNY   51  34  52 NW15G31   29.78R
ANDREWS AFB    MOSUNNY   52  33  48 NW26      29.79R
WILMINGTON DE  SUNNY     51  32  48 NW23G40   29.73R
PHILADELPHIA   PTSUNNY   51  31  46 NW25G36   29.70R
WILDWOOD NJ*   SUNNY     52  34  50 NW18G28   29.69R
ATLANTIC CITY  SUNNY     53  32  44 NW24G36   29.65S
HENDERSON NC   SUNNY     58  32  36 NW7G20    29.82R
GREENSBORO     PTSUNNY   59  31  34 NW14G22   29.85R
ROCKY MOUNT    SUNNY     63  40  42 NW13      29.80R
FAYETTEVILLE   SUNNY     66  44  45 N16       29.81R
CHARLOTTE      SUNNY     62  40  44 N8        29.87R
$$

VAZ100-231400-
MARINE

STATION/POSITION TIME  TEMP    WIND        PRES    WAVE   SWELL
                       AIR SEA DIR/SP/G            HT/PER HT/PER
                 (UTC) (F)     (DEG/KT/KT) (MB)    (FT/S) (FT/S)
44066 TX TWR #4  1300   48 45  290/ 19/ 23 1000.8R   5/ 5   3/ 9
CAPE MAY NJ      1300   52 56  330/ 25/ 37 1004.8R
LEWES DE         1300   52 51  320/ 31/ 36 1004.1R
15NM E FENWICK I 1300   50 47              1004.8F   4/ 9
OCEAN-CITY-INLET 1300   53 48  330/ 18/ 23 1005.0F
WACHAPREAGUE VA  1300   56 59  330/  7/ 17 1006.3R
THOMAS POINT MD  1300   50 53  320/ 25/ 28 1008.2R
GOOSES REEF MD   1300   52     330/ 21/ 25   N/A
COVE POINT MD    1300   52     340/ 27/ 31 1007.3R
SOLOMONS ISLAND  1300      55                N/A
BISHOPS HEAD MD  1300   53 57  320/ 31/ 36 1006.7R
PINEY POINT MD   1300          330/ 30/ 33   N/A
POTOMAC MD       1300   54     330/ 25/ 33 1006.3R
CAMBRIDGE MD     1300   52 57  320/ 20/ 26 1007.3R
LEWISETTA VA     1300   54 57  330/ 21/ 27 1007.5R
RAPPAHANNOCK LGT 1300          320/ 26/ 29 1007.4R
STINGRAY PT      1300   55     350/ 17/ 23 1007.2R
YORK RVR RNG VA  1300   56     360/ 22/ 26 1006.5R
YORKTOWN VA      1300   55 56  320/ 15/ 17 1007.5R
JAMESTOWN VA     1300   57     350/ 12/ 17   N/A
DOMINION TERM VA 1300   57     360/  4/ 11 1007.6R
KIPTOPEKE VA     1300      55  350/ 23/ 28   N/A
CHES BAY BRIDGE  1300   55 54  330/ 18/ 21 1007.4R
CAPE HENRY VA    1300   54     330/ 20/ 24   N/A
CHESAPEAKE LGHT  1200   53     340/ 20/ 21 1006.9R
WILLOUBY STN VA  1300   55     330/ 17/ 18 1006.9R
S CRANEY ISL VA  1300          310/ 13/ 20 1007.7R
CAPE HENRY BUOY  1300      48                N/A     4/ 9
1ST LANDING BUOY 1300      47                N/A     4/ 9   2/ 9
64NM E OF VA BCH 1300   52 49  350/ 16/ 17 1006.2R   4/ 9   3/ 9
DUCK PIER NC     1300   53 48   10/ 18/ 20 1006.2R
44100 DUCK FRF   1300      49                N/A     3/ 8
44056 DUCK FRF   1300      50                N/A     3/ 9
OREGON INLET NC  1300   55 53  350/ 12/ 17 1007.1R
HATTERAS NC      1300   59 58   20/ 19/ 24 1007.3R
DIAMOND SHLS NC  1300   62 75   10/ 21/ 27 1006.2R   4/ 8   3/ 8
CAPE LOOKOUT NC  1200   63     290/ 11/ 13 1006.7R
FRYING PAN SHLS  1300   64 67  290/ 16/ 17 1008.5R   3/ 8   2/ 8
$$



USA.gov is the U.S. government's official web portal to all federal, state and local government web resources and services.